Погода в Сполето

Италия     42°44′31″N   12°44′29″E
темп.,
°C
ветер,
м/с
пор.,
м/с
влажн.,
%
обл.,
%
осадки,
мм/ч
давл.,
гПа
погр.,
м
10 мая, пн
пн1023:00+13юв1193100 0.0 101912
02:00+12вюв2193100 0.0 101813
05:00+12юв229320 0.0 101818
08:00+15ююв12780 0.0 1018196
11:00+21юз23395 0.0 10161054
14:00+23зюз34345 0.0 10161719
17:00+23юз34395 0.0 10151591
20:00+16ююз1168100 0.0 101512
11 мая, вт
вт1123:00+13юв227298 0.0 101618
02:00+13вюв22680 0.0 101516
05:00+12вюв22725 0.0 101415
08:00+16ююз126119 0.0 1013151
11:00+20зюз254596 0.0 10131160
14:00+20юз2447100 0.3 10111077
17:00+19юз51058100 0.1 10091930
20:00+11ююв1296100 5.6 1010183
12 мая, ср
ср1223:00+11ю369669 2.4 1010317
02:00+9ю239611 3.8 101062
05:00+8ю34963 0.1 100991
08:00+11ю489059 0.1 1008683
11:00+13ю587352 0.0 10081046
14:00+14ююз686669 0.4 10081284
17:00+13юз467697 1.5 10081017
20:00+10зюз228299 2.0 100822
13 мая, чт
чт1323:00+8ююв36933 0.2 1008102
02:00+6ююв359337 0.2 100894
05:00+7ююв379513 0.1 1007159
08:00+10ю378783 0.1 1006709
11:00+12ю587327 0.2 10051121
14:00+14ю576731 1.0 10051312
17:00+13юз4869100 0.9 10051069
20:00+10ююз238698 1.9 100774
14 мая, пт
пт1423:00+9ююв239473 0.9 100977
02:00+7ююв3494100 1.1 101073
05:00+7юв349482 0.0 101072
08:00+10ююв258345 0.0 1011444
11:00+15ююз455524 0.0 10121511
14:00+15ююз575699 0.2 10121602
17:00+15ююз685795 0.0 10131625
20:00+11ююз358015 0.1 1014148